When you browse on this site, cookies collect data to enhance your experience and personalize the content and advertising you see.
Visit our Privacy Policy to learn more. By continuing to use the site, you agree to this use of cookies and data.
  • In Hungary
  • List of Countries
  • For 7 days
  • Water Temperature
  • Weather Map
  • News
  • Weather Widgets
  • user-avatar
    Login

    Hourly Weather Naru

    Today, 10 December, Tuesday

    Time Temperature Precipitation Wind Pressure Humidity
    00:00 +13°C° 0 mm 1 mps 747 mmHg 84%
    01:00 +12°C° 0 mm 1 mps 746 mmHg 92%
    02:00 +12°C° 0 mm 1 mps 746 mmHg 92%
    03:00 +11°C° 0 mm 1 mps 746 mmHg 93%
    04:00 +11°C° 0 mm 1 mps 746 mmHg 93%
    05:00 +11°C° 0 mm 1 mps 746 mmHg 90%
    06:00 +12°C° 0 mm 1 mps 746 mmHg 86%
    07:00 +13°C° 0 mm 1 mps 747 mmHg 82%
    08:00 +16°C° 0 mm 1 mps 747 mmHg 68%
    09:00 +19°C° 0 mm 2 mps 747 mmHg 54%
    10:00 +24°C° 0 mm 2 mps 747 mmHg 40%
    11:00 +25°C° 0 mm 2 mps 747 mmHg 37%
    12:00 +26°C° 0 mm 2 mps 746 mmHg 34%
    13:00 +27°C° 0 mm 2 mps 745 mmHg 30%
    14:00 +27°C° 0 mm 3 mps 745 mmHg 34%
    15:00 +26°C° 0 mm 3 mps 744 mmHg 37%
    16:00 +25°C° 0 mm 3 mps 744 mmHg 40%
    17:00 +21°C° 0 mm 3 mps 744 mmHg 51%
    18:00 +19°C° 0 mm 2 mps 744 mmHg 61%
    19:00 +16°C° 0 mm 2 mps 744 mmHg 72%
    20:00 +15°C° 0 mm 2 mps 745 mmHg 78%
    21:00 +14°C° 0 mm 1 mps 745 mmHg 85%
    22:00 +12°C° 0 mm 1 mps 746 mmHg 91%
    23:00 +12°C° 0 mm 1 mps 745 mmHg 92%

    Tomorrow, 11 December, Wednesday

    Time Temperature Precipitation Wind Pressure Humidity
    00:00 +12°C° 0 mm 1 mps 745 mmHg 93%
    01:00 +11°C° 0 mm 1 mps 745 mmHg 94%
    02:00 +11°C° 0 mm 1 mps 745 mmHg 94%
    03:00 +11°C° 0 mm 1 mps 745 mmHg 95%
    04:00 +11°C° 0 mm 1 mps 745 mmHg 95%
    05:00 +12°C° 0 mm 1 mps 745 mmHg 93%
    06:00 +13°C° 0 mm 1 mps 746 mmHg 90%
    07:00 +14°C° 0 mm 1 mps 746 mmHg 87%
    08:00 +17°C° 0 mm 2 mps 746 mmHg 74%
    09:00 +20°C° 0 mm 2 mps 747 mmHg 62%
    10:00 +24°C° 0 mm 2 mps 747 mmHg 49%
    11:00 +26°C° 0 mm 3 mps 746 mmHg 47%
    12:00 +27°C° 0 mm 3 mps 745 mmHg 44%
    13:00 +28°C° 0 mm 3 mps 745 mmHg 42%
    14:00 +27°C° 0 mm 3 mps 744 mmHg 45%
    15:00 +26°C° 0 mm 3 mps 744 mmHg 48%
    16:00 +26°C° 0 mm 3 mps 743 mmHg 51%
    17:00 +22°C° 0 mm 3 mps 744 mmHg 60%
    18:00 +20°C° 0 mm 3 mps 744 mmHg 69%
    19:00 +18°C° 0 mm 2 mps 744 mmHg 77%
    20:00 +17°C° 0 mm 2 mps 745 mmHg 82%
    21:00 +16°C° 0 mm 2 mps 745 mmHg 86%
    22:00 +15°C° 0 mm 2 mps 746 mmHg 90%
    23:00 +15°C° 0 mm 1 mps 746 mmHg 92%

    Day after tomorrow, 12 December, Thursday

    Time Temperature Precipitation Wind Pressure Humidity
    00:00 +14°C° 0 mm 1 mps 746 mmHg 94%
    01:00 +14°C° 0 mm 1 mps 745 mmHg 96%
    02:00 +14°C° 0 mm 1 mps 745 mmHg 96%
    03:00 +14°C° 0 mm 1 mps 745 mmHg 96%
    04:00 +14°C° 0 mm 1 mps 745 mmHg 96%
    05:00 +15°C° 0 mm 1 mps 745 mmHg 94%
    06:00 +15°C° 0 mm 1 mps 746 mmHg 92%
    07:00 +16°C° 0 mm 1 mps 746 mmHg 91%
    08:00 +19°C° 0 mm 2 mps 747 mmHg 79%
    09:00 +23°C° 0 mm 2 mps 747 mmHg 66%
    10:00 +26°C° 0 mm 3 mps 747 mmHg 54%
    11:00 +27°C° 0 mm 3 mps 747 mmHg 51%
    12:00 +28°C° 0 mm 3 mps 746 mmHg 48%
    13:00 +29°C° 0 mm 3 mps 745 mmHg 45%
    14:00 +28°C° 0 mm 3 mps 745 mmHg 48%
    15:00 +27°C° 0 mm 3 mps 744 mmHg 52%
    16:00 +27°C° 0 mm 3 mps 744 mmHg 55%
    17:00 +24°C° 0 mm 3 mps 744 mmHg 63%
    18:00 +21°C° 0 mm 3 mps 745 mmHg 71%
    19:00 +19°C° 0 mm 2 mps 745 mmHg 79%
    20:00 +19°C° 0 mm 2 mps 745 mmHg 83%
    21:00 +18°C° 0 mm 2 mps 746 mmHg 86%
    22:00 +17°C° 0 mm 2 mps 746 mmHg 90%
    23:00 +17°C° 0 mm 2 mps 746 mmHg 91%

    13 December, Friday

    Time Temperature Precipitation Wind Pressure Humidity
    00:00 +18°C° 0 mm 1 mps 746 mmHg 92%
    01:00 +16°C° 0 mm 1 mps 745 mmHg 94%
    02:00 +16°C° 0 mm 1 mps 745 mmHg 94%
    03:00 +16°C° 0 mm 1 mps 745 mmHg 95%
    04:00 +16°C° 0 mm 1 mps 745 mmHg 95%
    05:00 +18°C° 0 mm 1 mps 745 mmHg 94%
    06:00 +18°C° 0 mm 1 mps 746 mmHg 94%
    07:00 +18°C° 0 mm 1 mps 747 mmHg 93%
    08:00 +20°C° 0 mm 2 mps 747 mmHg 80%
    09:00 +24°C° 0 mm 3 mps 747 mmHg 67%
    10:00 +27°C° 0 mm 3 mps 748 mmHg 55%
    11:00 +28°C° 0 mm 3 mps 747 mmHg 52%
    12:00 +29°C° 0 mm 3 mps 746 mmHg 49%
    13:00 +30°C° 0 mm 3 mps 746 mmHg 46%
    14:00 +29°C° 0 mm 3 mps 745 mmHg 49%
    15:00 +28°C° 0 mm 3 mps 745 mmHg 52%
    16:00 +27°C° 0 mm 3 mps 745 mmHg 54%
    17:00 +25°C° 0 mm 3 mps 745 mmHg 62%
    18:00 +22°C° 0 mm 3 mps 745 mmHg 70%
    19:00 +20°C° 0 mm 2 mps 746 mmHg 78%
    20:00 +19°C° 0 mm 2 mps 746 mmHg 83%
    21:00 +19°C° 0 mm 2 mps 746 mmHg 87%
    22:00 +18°C° 0 mm 2 mps 747 mmHg 91%
    23:00 +19°C° 0 mm 1 mps 747 mmHg 92%

    14 December, Saturday

    Time Temperature Precipitation Wind Pressure Humidity
    00:00 +18°C° 0 mm 1 mps 746 mmHg 94%
    01:00 +18°C° 0 mm 1 mps 746 mmHg 95%
    02:00 +18°C° 0 mm 1 mps 746 mmHg 95%
    03:00 +19°C° 0 mm 1 mps 746 mmHg 95%
    04:00 +19°C° 0 mm 1 mps 745 mmHg 95%
    05:00 +19°C° 0 mm 1 mps 746 mmHg 94%
    06:00 +20°C° 0 mm 1 mps 746 mmHg 92%
    07:00 +20°C° 0 mm 1 mps 747 mmHg 91%
    08:00 +23°C° 0 mm 2 mps 747 mmHg 80%
    09:00 +26°C° 0 mm 3 mps 747 mmHg 68%
    10:00 +28°C° 0 mm 3 mps 747 mmHg 56%
    11:00 +29°C° 0 mm 3 mps 746 mmHg 53%
    12:00 +30°C° 0 mm 3 mps 746 mmHg 51%
    13:00 +32°C° 0 mm 4 mps 745 mmHg 48%
    14:00 +30°C° 0 mm 4 mps 744 mmHg 51%
    15:00 +29°C° 0 mm 3 mps 744 mmHg 54%
    16:00 +28°C° 0 mm 3 mps 744 mmHg 57%
    17:00 +26°C° 0 mm 3 mps 744 mmHg 65%
    18:00 +24°C° 0 mm 3 mps 744 mmHg 73%
    19:00 +23°C° 0 mm 2 mps 745 mmHg 81%
    20:00 +21°C° 0 mm 2 mps 745 mmHg 84%
    21:00 +20°C° 0 mm 2 mps 745 mmHg 87%
    22:00 +20°C° 0 mm 2 mps 746 mmHg 90%
    23:00 +19°C° 0 mm 2 mps 745 mmHg 91%

    15 December, Sunday

    Time Temperature Precipitation Wind Pressure Humidity
    00:00 +20°C° 0 mm 1 mps 745 mmHg 92%
    01:00 +20°C° 0 mm 1 mps 745 mmHg 93%
    02:00 +19°C° 0 mm 1 mps 745 mmHg 94%
    03:00 +19°C° 0 mm 1 mps 745 mmHg 95%
    04:00 +19°C° 0 mm 1 mps 744 mmHg 96%
    05:00 +19°C° 0 mm 1 mps 745 mmHg 96%
    06:00 +19°C° 0 mm 1 mps 745 mmHg 95%
    07:00 +20°C° 0 mm 1 mps 745 mmHg 94%
    08:00 +23°C° 0 mm 1 mps 745 mmHg 82%
    09:00 +26°C° 0 mm 2 mps 746 mmHg 69%
    10:00 +29°C° 0 mm 2 mps 746 mmHg 56%
    11:00 +30°C° 0 mm 3 mps 745 mmHg 53%
    12:00 +31°C° 0 mm 3 mps 744 mmHg 50%
    13:00 +33°C° 0 mm 3 mps 744 mmHg 46%
    14:00 +31°C° 0 mm 3 mps 743 mmHg 49%
    15:00 +30°C° 0 mm 3 mps 743 mmHg 52%
    16:00 +30°C° 0 mm 3 mps 743 mmHg 55%
    17:00 +28°C° 0 mm 3 mps 743 mmHg 63%
    18:00 +26°C° 0 mm 2 mps 743 mmHg 71%
    19:00 +24°C° 0 mm 2 mps 744 mmHg 79%
    20:00 +23°C° 0 mm 2 mps 744 mmHg 84%
    21:00 +22°C° 0 mm 1 mps 744 mmHg 89%
    22:00 +21°C° 0 mm 1 mps 745 mmHg 94%
    23:00 +21°C° 0 mm 1 mps 744 mmHg 95%
    Show more